BYNCTR-WX Weather Reports


Display with metric or nautical units.
time (UTC)temp
F
wind
direction
speed
MPH
gust
MPH
rain 1hr
in
rain 24hr
in
rain mn
in
humidity
%
barometer
mb
20260509063124 46 176 9.0 0.0 0.00 0.00 0.00 45 978.2
20260509061608 46 175 9.0 0.0 0.00 0.00 0.00 45 978.2
20260509060154 46 171 9.0 0.0 0.00 0.00 0.00 45 978.2
20260509054607 46 170 7.0 0.0 0.00 0.00 0.00 40 979.6
20260509053122 47 169 7.0 0.0 0.00 0.00 0.00 45 979.0
20260509051605 47 166 8.0 0.0 0.00 0.00 0.00 45 979.0
20260509050139 47 168 7.0 0.0 0.00 0.00 0.00 45 979.0
20260509044606 47 168 7.0 0.0 0.00 0.00 0.00 39 980.0
20260509043122 47 173 7.0 0.0 0.00 0.00 0.00 42 978.7
20260509041606 49 172 8.0 0.0 0.00 0.00 0.00 42 978.8
20260509040144 49 171 8.0 0.0 0.00 0.00 0.00 42 978.8
20260509034606 48 171 8.0 0.0 0.00 0.00 0.00 39 979.6
20260509033121 48 175 7.0 0.0 0.00 0.00 0.00 37 980.2
20260509031606 49 174 6.0 0.0 0.00 0.00 0.00 37 980.2
20260509030139 50 167 6.0 0.0 0.00 0.00 0.00 37 980.2
20260509024605 50 162 6.0 0.0 0.00 0.00 0.00 36 980.5
20260509023123 50 165 6.0 0.0 0.00 0.00 0.00 35 980.5
20260509021606 50 176 6.0 0.0 0.00 0.00 0.00 35 980.5
20260509020136 51 176 6.0 0.0 0.00 0.00 0.00 35 980.5
20260509014605 52 182 6.0 0.0 0.00 0.00 0.00 33 980.6
20260509013119 53 195 5.0 0.0 0.00 0.00 0.00 33 980.6
20260509011605 54 195 4.0 0.0 0.00 0.00 0.00 33 980.6
20260509010133 55 214 3.0 0.0 0.00 0.00 0.00 33 980.6
20260509004603 56 231 3.0 0.0 0.00 0.00 0.00 29 980.3
20260509003122 57 241 4.0 0.0 0.00 0.00 0.00 27 981.5
20260509001604 57 254 3.0 0.0 0.00 0.00 0.00 27 981.5
20260509000147 58 256 4.0 0.0 0.00 0.00 0.00 27 981.5
20260508234606 59 258 6.0 0.0 0.00 0.00 0.00 23 980.9
20260508233125 60 260 7.0 0.0 0.00 0.00 0.00 21 981.4
20260508231608 60 260 7.0 0.0 0.00 0.00 0.00 21 981.4
20260508230131 60 267 8.0 0.0 0.00 0.00 0.00 21 981.4
20260508224607 60 269 8.0 0.0 0.00 0.00 0.00 21 981.5
20260508223126 60 269 9.0 0.0 0.00 0.00 0.00 21 982.4
20260508221608 60 268 10.0 0.0 0.00 0.00 0.00 21 982.4
20260508220133 61 264 10.0 0.0 0.00 0.00 0.00 21 982.4
20260508214608 61 266 11.0 0.0 0.00 0.00 0.00 20 983.0
20260508213125 61 264 11.0 0.0 0.00 0.00 0.00 21 982.4
20260508211608 62 257 10.0 0.0 0.00 0.00 0.00 21 982.4
20260508210137 62 256 10.0 0.0 0.00 0.00 0.00 21 982.4
20260508204608 62 255 11.0 0.0 0.00 0.00 0.00 23 982.6
20260508203126 62 252 11.0 0.0 0.00 0.00 0.00 21 982.2
20260508201608 62 252 9.0 0.0 0.00 0.00 0.00 21 982.3
20260508200133 62 248 10.0 0.0 0.00 0.00 0.00 21 982.3
20260508194608 62 246 10.0 0.0 0.00 0.00 0.00 19 982.5
20260508193122 62 245 10.0 0.0 0.00 0.00 0.00 19 982.5
20260508191607 62 254 10.0 0.0 0.00 0.00 0.00 19 982.5
20260508190131 62 253 9.0 0.0 0.00 0.00 0.00 19 982.5
20260508184607 62 253 9.0 0.0 0.00 0.00 0.00 21 983.0
20260508183127 62 250 9.0 0.0 0.00 0.00 0.00 22 982.5
20260508181607 62 251 10.0 0.0 0.00 0.00 0.00 22 982.5
20260508180138 61 249 10.0 0.0 0.00 0.00 0.00 22 982.5
20260508174608 61 244 10.0 0.0 0.00 0.00 0.00 31 983.6
20260508173126 61 252 11.0 0.0 0.00 0.00 0.00 31 983.6
20260508171607 60 241 10.0 0.0 0.00 0.00 0.00 31 983.6
20260508170133 60 241 10.0 0.0 0.00 0.00 0.00 31 983.6
20260508164607 59 245 9.0 0.0 0.00 0.00 0.00 34 984.0
20260508163126 59 239 10.0 0.0 0.00 0.00 0.00 34 984.1
20260508161607 57 235 9.0 0.0 0.00 0.00 0.00 34 984.1
20260508160138 57 229 8.0 0.0 0.00 0.00 0.00 34 984.1
20260508154608 56 222 8.0 0.0 0.00 0.00 0.00 47 985.0
20260508153128 55 207 7.0 0.0 0.00 0.00 0.00 49 983.8
20260508151608 54 197 7.0 0.0 0.00 0.00 0.00 49 983.8
20260508150138 53 193 7.0 0.0 0.00 0.00 0.00 49 983.8
20260508144608 53 189 7.0 0.0 0.00 0.00 0.00 61 984.2
20260508143125 52 191 7.0 0.0 0.00 0.00 0.00 59 984.2
20260508141608 51 186 6.0 0.0 0.00 0.00 0.00 59 984.2
20260508140146 50 182 5.0 0.0 0.00 0.00 0.00 60 984.0
20260508134608 49 180 5.0 0.0 0.00 0.00 0.00 69 983.8
20260508133122 47 186 6.0 0.0 0.00 0.00 0.00 69 983.8
20260508131607 46 184 6.0 0.0 0.00 0.00 0.00 69 983.8
20260508130142 44 184 7.0 0.0 0.00 0.00 0.00 69 983.8
20260508124608 43 184 6.0 0.0 0.00 0.00 0.00 79 983.4
20260508123126 42 190 6.0 0.0 0.00 0.00 0.00 79 983.9
20260508121607 41 185 4.0 0.0 0.00 0.00 0.00 79 983.9
20260508120156 39 180 3.0 0.0 0.00 0.00 0.00 79 983.9
20260508114607 37 180 2.0 0.0 0.00 0.00 0.00 76 983.4
20260508113129 36 172 3.0 0.0 0.00 0.00 0.00 79 983.9
20260508111607 36 162 4.0 0.0 0.00 0.00 0.00 79 984.0
20260508110133 36 158 4.0 0.0 0.00 0.00 0.00 79 984.0
20260508104609 36 157 4.0 0.0 0.00 0.00 0.00 74 983.1
20260508103127 36 152 3.0 0.0 0.00 0.00 0.00 72 984.1
20260508101610 37 150 3.0 0.0 0.00 0.00 0.00 72 984.1
20260508100134 37 147 3.0 0.0 0.00 0.00 0.00 72 984.1
20260508094609 37 152 3.0 0.0 0.00 0.00 0.00 72 983.4
20260508093123 37 155 3.0 0.0 0.00 0.00 0.00 76 984.1
20260508091610 37 161 4.0 0.0 0.00 0.00 0.00 76 984.1
20260508090138 37 163 4.0 0.0 0.00 0.00 0.00 76 984.1
20260508084609 37 163 4.0 0.0 0.00 0.00 0.00 80 983.8
20260508083127 37 168 4.0 0.0 0.00 0.00 0.00 75 983.4
20260508081608 37 175 4.0 0.0 0.00 0.00 0.00 75 983.4
20260508080141 38 166 4.0 0.0 0.00 0.00 0.00 75 983.4
20260508074610 38 159 4.0 0.0 0.00 0.00 0.00 65 984.3
20260508073128 39 165 5.0 0.0 0.00 0.00 0.00 65 984.3
20260508071608 38 173 5.0 0.0 0.00 0.00 0.00 65 984.2
20260508070140 39 172 4.0 0.0 0.00 0.00 0.00 65 984.2
20260508064608 39 166 4.0 0.0 0.00 0.00 0.00 56 983.9